Time,TemperatureF,DewpointF,PressureIn,WindDirection,WindDirectionDegrees,WindSpeedMPH,WindSpeedGustMPH,Humidity,HourlyPrecipIn,Conditions,Clouds,dailyrainin,SolarRadiationWatts/m^2,SoftwareType,DateUTC
2013-07-16 12:53:00,89.0,71.0,-100.00,ENE,66,4.0,6.0,56,0.00,,,0.11,783.000000,,2013-07-16 17:53:00,
2013-07-16 13:01:00,89.0,71.0,-100.00,ENE,66,4.0,6.0,56,0.00,,,0.11,783.000000,,2013-07-16 18:01:00,
2013-07-16 13:11:00,89.0,71.0,-100.00,ENE,66,4.0,6.0,56,0.00,,,0.11,783.000000,,2013-07-16 18:11:00,
2013-07-16 13:22:00,89.0,71.0,-100.00,ENE,66,4.0,6.0,56,0.00,,,0.11,783.000000,,2013-07-16 18:22:00,
2013-07-16 13:53:00,90.0,69.0,-100.00,NE,50,4.0,9.0,51,0.00,,,0.11,1097.000000,,2013-07-16 18:53:00,
2013-07-16 14:01:00,90.0,69.0,-100.00,NE,50,4.0,9.0,51,0.00,,,0.11,1097.000000,,2013-07-16 19:01:00,
2013-07-16 14:11:00,90.0,69.0,-100.00,NE,50,4.0,9.0,51,0.00,,,0.11,1097.000000,,2013-07-16 19:11:00,
2013-07-16 14:22:00,90.0,69.0,-100.00,NE,50,4.0,9.0,51,0.00,,,0.11,1097.000000,,2013-07-16 19:22:00,
2013-07-16 14:52:00,91.0,69.0,-100.00,East,82,4.0,9.0,49,0.00,,,0.10,988.000000,,2013-07-16 19:52:00,
2013-07-16 15:03:00,91.0,69.0,-100.00,East,82,4.0,9.0,49,0.00,,,0.10,988.000000,,2013-07-16 20:03:00,
2013-07-16 15:11:00,91.0,69.0,-100.00,East,82,4.0,9.0,49,0.00,,,0.10,988.000000,,2013-07-16 20:11:00,
2013-07-16 15:22:00,91.0,69.0,-100.00,East,82,4.0,9.0,49,0.00,,,0.10,988.000000,,2013-07-16 20:22:00,
2013-07-16 15:52:00,91.0,70.0,-100.00,East,86,4.0,9.0,50,0.00,,,0.00,831.000000,,2013-07-16 20:52:00,
2013-07-16 16:01:00,91.0,70.0,-100.00,East,86,4.0,9.0,50,0.00,,,0.00,831.000000,,2013-07-16 21:01:00,
2013-07-16 16:11:00,91.0,70.0,-100.00,East,86,4.0,9.0,50,0.00,,,0.00,831.000000,,2013-07-16 21:11:00,
2013-07-16 16:22:00,91.0,70.0,-100.00,East,86,4.0,9.0,50,0.00,,,0.00,831.000000,,2013-07-16 21:22:00,
2013-07-16 16:52:00,91.0,71.0,-100.00,ENE,66,3.0,8.0,52,0.00,,,0.00,763.000000,,2013-07-16 21:52:00,
2013-07-16 17:01:00,91.0,71.0,-100.00,ENE,66,3.0,8.0,52,0.00,,,0.00,763.000000,,2013-07-16 22:01:00,
2013-07-16 17:11:00,91.0,71.0,-100.00,ENE,66,3.0,8.0,52,0.00,,,0.00,763.000000,,2013-07-16 22:11:00,
2013-07-16 17:22:00,91.0,71.0,-100.00,ENE,66,3.0,8.0,52,0.00,,,0.00,763.000000,,2013-07-16 22:22:00,
2013-07-16 17:52:00,91.0,70.0,-100.00,East,91,3.0,6.0,51,0.00,,,0.00,577.000000,,2013-07-16 22:52:00,
2013-07-16 18:01:00,91.0,70.0,-100.00,East,91,3.0,6.0,51,0.00,,,0.00,577.000000,,2013-07-16 23:01:00,
2013-07-16 18:11:00,91.0,70.0,-100.00,East,91,3.0,6.0,51,0.00,,,0.00,577.000000,,2013-07-16 23:11:00,
2013-07-16 18:22:00,91.0,70.0,-100.00,East,91,3.0,6.0,51,0.00,,,0.00,577.000000,,2013-07-16 23:22:00,
2013-07-16 18:52:00,90.0,73.0,-100.00,East,95,2.0,6.0,57,0.00,,,0.00,366.000000,,2013-07-16 23:52:00,
2013-07-16 19:01:00,90.0,73.0,-100.00,East,95,2.0,6.0,57,0.00,,,0.00,366.000000,,2013-07-17 00:01:00,
2013-07-16 19:11:00,90.0,73.0,-100.00,East,95,2.0,6.0,57,0.00,,,0.00,366.000000,,2013-07-17 00:11:00,
2013-07-16 19:22:00,90.0,73.0,-100.00,East,95,2.0,6.0,57,0.00,,,0.00,366.000000,,2013-07-17 00:22:00,
2013-07-16 19:52:00,85.0,75.0,-100.00,NNE,15,0.0,2.0,71,0.00,,,-99.99,152.000000,,2013-07-17 00:52:00,
2013-07-16 20:01:00,85.0,75.0,-100.00,NNE,15,0.0,2.0,71,0.00,,,-99.99,152.000000,,2013-07-17 01:01:00,
2013-07-16 20:11:00,85.0,75.0,-100.00,NNE,15,0.0,2.0,71,0.00,,,-99.99,152.000000,,2013-07-17 01:11:00,
2013-07-16 20:22:00,85.0,75.0,-100.00,NNE,15,0.0,2.0,71,0.00,,,-99.99,152.000000,,2013-07-17 01:22:00,
2013-07-16 20:53:00,79.0,74.0,-100.00,NW,308,0.0,0.0,85,0.00,,,0.00,13.000000,,2013-07-17 01:53:00,
2013-07-16 21:01:00,79.0,74.0,-100.00,NW,308,0.0,0.0,85,0.00,,,0.00,13.000000,,2013-07-17 02:01:00,
2013-07-16 21:11:00,79.0,74.0,-100.00,NW,308,0.0,0.0,85,0.00,,,0.00,13.000000,,2013-07-17 02:11:00,
2013-07-16 21:22:00,79.0,74.0,-100.00,NW,308,0.0,0.0,85,0.00,,,0.00,13.000000,,2013-07-17 02:22:00,
2013-07-16 21:53:00,77.0,74.0,-100.00,ESE,120,0.0,0.0,90,0.00,,,0.00,0.000000,,2013-07-17 02:53:00,
2013-07-16 22:01:00,77.0,74.0,-100.00,ESE,120,0.0,0.0,90,0.00,,,0.00,0.000000,,2013-07-17 03:01:00,
2013-07-16 22:11:00,77.0,74.0,-100.00,ESE,120,0.0,0.0,90,0.00,,,0.00,0.000000,,2013-07-17 03:11:00,
2013-07-16 22:22:00,77.0,74.0,-100.00,ESE,120,0.0,0.0,90,0.00,,,0.00,0.000000,,2013-07-17 03:22:00,
2013-07-16 22:53:00,75.0,73.0,-100.00,East,93,0.0,0.0,93,0.00,,,0.00,0.000000,,2013-07-17 03:53:00,
2013-07-16 23:01:00,75.0,73.0,-100.00,East,93,0.0,0.0,93,0.00,,,0.00,0.000000,,2013-07-17 04:01:00,
2013-07-16 23:11:00,75.0,73.0,-100.00,East,93,0.0,0.0,93,0.00,,,0.00,0.000000,,2013-07-17 04:11:00,
2013-07-16 23:22:00,75.0,73.0,-100.00,East,93,0.0,0.0,93,0.00,,,0.00,0.000000,,2013-07-17 04:22:00,
2013-07-16 23:53:00,75.0,73.0,-100.00,ESE,102,0.0,2.0,95,0.00,,,-99.99,0.000000,,2013-07-17 04:53:00,